COSMOS 2251 DEB

Satellite information

Favourite Embed

Satellite Type and Status

DEBRISIN ORBIT

Key statistics

Satellite COSMOS 2251 DEB at a glance.

Uptime

11709

Days in orbit

Revolutions

≈ 14.8

Per day

Orbit

LEO

Low Earth Orbit

Inclination

74.1

Latest

Satellite identification and parameters

Extended collection of information and parameters for COSMOS 2251 DEB.

Object identification

Identified? True

Debris? True

Object name: COSMOS 2251 DEB

International designator: 1993-036YB

Object number (NORAD): 34681

Object ID (CCSDS): 34681

Country: COMMONWEALTH OF INDEPENDENT STATES (CIS)

Current information (Y/N): Y

RCS size: SMALL

Orbital parameters

Period: 97.341 minutes

Inclination: 74.0637 deg

SMA: 7009.542 km

Apoapsis: 652.544 km

Periapsis: 610.27 km

RAAN: 243.8777 deg

Eccentricy: 0.0030154

Argument of periapsis: 348.2176 deg

Mean anomaly: 132.5316 deg

Mean motion: 14.79340999 rev/day

Mean motion (dot): 0.00005117 rev/day2

B* drag term: 0.00068584 1/REarth

Two-line elements (TLE)

Creation date: July 6, 2025, 6:05 p.m.

Reference frame: TEME

Reference center: EARTH

Epoch: July 6, 2025, 1:32 p.m. UTC

TLE line 0: 0 COSMOS 2251 DEB

TLE line 1: 1 34681U 93036YB 25187.56421911 .00005117 00000-0 68584-3 0 9993

TLE line 2: 2 34681 74.0637 243.8777 0030154 348.2176 132.5316 14.79340999869147

Live tracking on map

Real-time ground track for satellite COSMOS 2251 DEB.

In-orbit conjunctions

A list of the most updated potential collisions computed for object COSMOS 2251 DEB.

Target Orbit TCA Probability of collision Miss distance Type
CZ-2C R/B SSO 2025-07-05 13:45:05 0.0006699586 233.0 (m) ROCKET BODY
CZ-6A DEB LEO 2025-03-05 17:06:11 0.0001460518 674.0 (m) DEBRIS

Associated space launch

Military communications satellite. Destroyed in a collision with Iridium 33.

COSMOS 2251 DEB was lifted into orbit during the mission ‘Kosmos-3M | Strela-2M 51’, on board a Kosmos-3M space rocket.

The launch took place on June 16, 1993, 4:17 a.m. from 132/1 (132L).

For more information about the launch, click the button.

Launch to space Kosmos-3M | Strela-2M 51
Kosmos-3M | Strela-2M 51

Agency: N/A

Status: Launch Successful

Launch date: June 16, 1993, 4:17 a.m. UTC

Rocket: Kosmos-3M

Launch pad: 132/1 (132L)

Location: Plesetsk Cosmodrome, Russian Federation

...

Latest news about this satellite

There are no fresh news available about this satellite. Check back as we update our databases every day.


Newsletter sign-up

Weekly statistics, charts and insights to help you stay on top of the space industry.